Flag for USA Past Weather in Bryan – College Station, Texas, USA — Yesterday and Last 2 Weeks

Now
74 °F

Clear.


Feels Like: 77 °F
Forecast: 60 / 89 °F
Wind: 5 mph from East

Location: Easterwood Field

Current Time: May 24, 2017 at 10:06:44 pm

Latest Report: May 24, 2017 at 8:53 pm


Visibility: 10 mi

Pressure: 29.72 "Hg

Humidity: 43%

Dew Point: 50 °F

Location of Bryan – College StationLocation

Past Weather in Bryan – College Station — Graph

°F

Bryan – College Station Temperature Yesterday

Maximum temperature yesterday: 81 °F (at 2:53 pm)
Minimum temperature yesterday: 60 °F (at 11:53 pm)
Average temperature yesterday: 69 °F

High & Low Weather Summary for the Past Weeks

 TemperatureHumidityPressure
High90 °F (May 18, 2:53 pm)100% (May 22, 6:18 am)30.09 "Hg (May 22, 6:18 am)
Low55 °F (May 24, 6:53 am)28% (May 24, 4:53 pm)29.70 "Hg (May 17, 1:53 am)
Average74 °F77%29.88 "Hg
* Reported May 9 7:53 pm — May 24 7:53 pm, Bryan – College Station. Weather by CustomWeather, © 2017

Note: Actual official high and low records may vary slightly from our data, if they occured in-between our weather recording intervals... More about our weather records

Advertising

Bryan – College Station Weather History for the Previous 24 Hours

Scroll right to see more
 ConditionsComfort  
Time TempWeatherWind HumidityBarometerVisibility
7:53 pm
Wed, May 24
79 °FSunny.3 mph34%29.71 "Hg10 mi
6:53 pm81 °FSunny.5 mph32%29.71 "Hg10 mi
5:53 pm82 °FSunny.8 mph28%29.72 "Hg10 mi
4:53 pm82 °FSunny.6 mph28%29.74 "Hg10 mi
3:53 pm82 °FSunny.13 mph31%29.76 "Hg10 mi
2:53 pm80 °FSunny.10 mph34%29.78 "Hg10 mi
1:53 pm80 °FPassing clouds.17 mph34%29.81 "Hg10 mi
12:53 pm77 °FSunny.15 mph45%29.83 "Hg10 mi
11:53 am75 °FSunny.10 mph50%29.85 "Hg10 mi
10:53 am72 °FSunny.10 mph55%29.86 "Hg10 mi
9:53 am67 °FSunny.9 mph63%29.87 "Hg10 mi
8:53 am63 °FSunny.10 mph73%29.85 "Hg10 mi
7:53 am57 °FSunny.8 mph90%29.85 "Hg10 mi
6:53 am55 °FSunny.7 mph90%29.85 "Hg10 mi
5:53 am56 °FClear.9 mph87%29.83 "Hg10 mi
4:53 am56 °FClear.7 mph90%29.84 "Hg10 mi
3:53 am56 °FClear.6 mph90%29.85 "Hg10 mi
2:53 am57 °FClear.9 mph90%29.87 "Hg10 mi
1:53 am58 °FClear.8 mph90%29.88 "Hg10 mi
12:53 am59 °FClear.7 mph87%29.90 "Hg10 mi
11:53 pm
Tue, May 23
60 °FClear.6 mph86%29.92 "Hg10 mi
10:53 pm62 °FClear.9 mph86%29.91 "Hg10 mi
Weather by CustomWeather, © 2017

See weather overviewHow to use our weather pages